sat.trackr.live / text

‹ back to catalog

STARLINK-32831

NORAD 62860 · 2025-022G

PAYLOAD ACTIVE UNKNOWN

§ Identity

Operator
Country
US
Launch date
2025-02-01
Launch site
AFWTR
Launch vehicle
Mass (kg)
RCS (m²)

Purposes: comms

External: N2YO · Heavens-Above · Gunter

§ Orbital elements

Epoch: 2026-05-25T03:02:17.815776Z

Period
94.10 min
Inclination
53.1560°
Eccentricity
0.0001143
Mean motion
15.30213164 rev/d
Perigee alt
474.4 km
Apogee alt
476.0 km
Semi-major
6,853.3 km
B*
5.8252e-4
RAAN
134.5228°
Arg perigee
76.7658°
Mean anomaly
283.3471°
Rev number
7,359

§ Raw data

STARLINK-328311 62860U 25022G   26145.12659509  .00016940  00000+0  58252-3 0  99922 62860  53.1560 134.5228 0001143  76.7658 283.3471 15.30213164 73595

JSON: /api/v1/satellites/62860 · /tle

For live sub-satellite position, see the globe view (requires WebGL).

§ Visibility from observer

Set your observer location to see the next 7 days of passes ≥ 10°. The values pass through the URL so the page stays shareable.

No JS? Fill the form by hand. The geolocation button needs JavaScript.